Temp
-15 -15 -15 -15 -15 -15 -15 -15 -15 -15 -15 -15 -15 -15 -15 -15 -15 -15 -15 -15 -15 -15 -15 -15 -14 -14 -14 -14 -14 -14 -14 -14 -14 -14 -14 -14 -13 -13 -13 -13 -13 -12 -11
-16 -16 -16 -16 -16 -15 -15 -15 -15 -15 -15 -15 -15 -15 -15 -15 -15 -15 -15 -16 -16 -16 -16 -15 -15 -14 -14 -14 -14 -14 -14 -14 -14 -14 -14 -14 -14 -14 -13 -13 -13 -12 -11
-17 -17 -17 -16 -16 -16 -16 -16 -16 -16 -16 -16 -16 -16 -15 -15 -15 -15 -15 -15 -16 -16 -16 -15 -15 -15 -15 -15 -15 -14 -14 -14 -14 -14 -14 -14 -14 -13 -13 -13 -13 -13 -12
-17 -17 -16 -17 -17 -17 -16 -16 -16 -16 -16 -17 -16 -16 -15 -16 -15 -15 -15 -15 -15 -15 -15 -16 -15 -15 -15 -15 -15 -15 -14 -14 -14 -14 -14 -14 -14 -14 -13 -13 -13 -12 -13
-18 -17 -17 -17 -17 -17 -17 -17 -17 -17 -17 -17 -17 -16 -16 -15 -16 -15 -15 -15 -16 -16 -16 -16 -16 -16 -16 -15 -15 -14 -15 -15 -15 -14 -14 -14 -14 -13 -13 -13 -13 -12 -13
-19 -18 -18 -18 -18 -17 -17 -18 -18 -18 -18 -17 -17 -16 -16 -16 -15 -16 -16 -16 -16 -16 -16 -16 -16 -16 -16 -15 -15 -15 -15 -15 -15 -14 -14 -14 -14 -13 -13 -13 -13 -13 -13
-19 -19 -19 -18 -18 -18 -18 -18 -18 -18 -18 -17 -17 -17 -17 -16 -16 -16 -16 -17 -17 -17 -17 -17 -17 -16 -16 -16 -16 -16 -15 -15 -14 -14 -14 -14 -14 -14 -14 -14 -14 -15 -14
-19 -19 -18 -18 -18 -17 -18 -18 -18 -18 -18 -17 -17 -17 -17 -16 -17 -17 -17 -17 -17 -17 -17 -17 -17 -17 -17 -17 -17 -16 -15 -15 -14 -14 -14 -14 -14 -14 -14 -14 -15 -15 -15
-18 -18 -18 -18 -18 -18 -18 -18 -18 -18 -18 -18 -17 -17 -17 -17 -17 -17 -17 -17 -17 -17 -17 -17 -17 -17 -17 -17 -17 -16 -15 -14 -14 -15 -15 -15 -15 -15 -15 -15 -18 -18 -17
-18 -18 -18 -18 -18 -18 -18 -17 -17 -18 -18 -17 -17 -17 -17 -17 -17 -17 -17 -17 -17 -17 -17 -17 -17 -17 -17 -17 -17 -16 -16 -17 -17 -18 -18 -18 -18 -18 -18 -18 -17 -16 -16
-18 -18 -18 -18 -18 -17 -17 -17 -17 -17 -17 -17 -17 -17 -17 -17 -17 -17 -17 -17 -17 -17 -17 -17 -17 -16 -17 -16 -17 -16 -17 -18 -18 -17 -18 -18 -17 -17 -16 -16 -15 -15 -15
-17 -17 -17 -17 -17 -17 -17 -17 -17 -17 -17 -17 -17 -17 -17 -17 -17 -17 -17 -17 -17 -17 -17 -17 -16 -17 -17 -17 -17 -17 -17 -18 -18 -17 -17 -16 -16 -16 -15 -15 -15 -15 -15
-17 -16 -16 -17 -17 -17 -17 -17 -17 -17 -17 -17 -17 -17 -17 -17 -16 -17 -18 -17 -17 -17 -17 -17 -17 -17 -17 -17 -17 -17 -18 -18 -17 -17 -16 -16 -16 -15 -15 -15 -15 -15 -15
-17 -16 -17 -17 -17 -17 -17 -17 -17 -18 -18 -18 -17 -17 -17 -17 -16 -17 -17 -17 -17 -17 -17 -18 -17 -17 -17 -18 -18 -18 -19 -17 -16 -16 -16 -16 -15 -15 -16 -16 -16 -16 -16
-17 -17 -17 -18 -18 -18 -18 -18 -18 -17 -18 -17 -17 -17 -18 -17 -17 -17 -17 -17 -17 -17 -17 -17 -17 -17 -17 -18 -18 -18 -17 -17 -16 -16 -16 -16 -16 -16 -16 -16 -16 -16 -16
-17 -18 -18 -18 -18 -18 -18 -18 -17 -18 -17 -17 -17 -17 -17 -17 -17 -17 -17 -17 -17 -17 -17 -17 -17 -17 -18 -18 -17 -17 -17 -16 -16 -16 -16 -16 -17 -17 -17 -17 -17 -18 -18
-18 -18 -18 -18 -18 -18 -18 -18 -18 -17 -17 -17 -17 -17 -17 -17 -17 -17 -17 -17 -18 -18 -17 -18 -18 -17 -17 -17 -17 -17 -17 -17 -17 -17 -17 -17 -17 -17 -17 -18 -18 -19 -19
-17 -17 -17 -17 -17 -17 -17 -17 -17 -17 -17 -17 -17 -17 -17 -17 -17 -17 -17 -18 -18 -17 -17 -17 -17 -18 -18 -17 -17 -17 -17 -17 -17 -17 -17 -17 -18 -18 -19 -19 -20 -20 -20
-17 -17 -17 -17 -17 -17 -17 -17 -17 -17 -17 -17 -17 -17 -18 -18 -18 -17 -16 -17 -17 -17 -17 -18 -18 -18 -18 -17 -17 -18 -17 -18 -18 -18 -19 -19 -20 -20 -20 -20 -20 -21 -21
-17 -17 -17 -17 -17 -17 -17 -17 -17 -17 -16 -17 -17 -16 -16 -17 -17 -17 -17 -17 -18 -18 -18 -18 -18 -18 -18 -18 -18 -18 -18 -19 -19 -20 -20 -20 -21 -21 -22 -22 -21 -21 -21
-17 -17 -17 -17 -17 -17 -17 -17 -17 -17 -17 -16 -16 -16 -17 -17 -17 -17 -18 -18 -18 -18 -18 -18 -18 -18 -18 -18 -19 -20 -20 -20 -20 -21 -22 -22 -22 -22 -22 -22 -22 -22 -21
-17 -17 -17 -17 -16 -16 -16 -17 -17 -17 -17 -17 -17 -17 -17 -17 -18 -18 -18 -18 -18 -18 -18 -18 -18 -19 -20 -20 -21 -20 -20 -21 -22 -22 -23 -23 -23 -23 -22 -22 -22 -22 -22
-16 -17 -16 -16 -16 -16 -16 -17 -17 -17 -17 -17 -17 -17 -17 -17 -18 -18 -18 -18 -18 -19 -19 -20 -20 -20 -21 -21 -21 -21 -22 -22 -23 -23 -23 -23 -23 -23 -23 -22 -22 -22 -22
-16 -16 -16 -16 -16 -16 -17 -17 -16 -17 -17 -17 -17 -17 -18 -18 -18 -18 -19 -19 -19 -20 -20 -20 -21 -21 -21 -21 -21 -22 -22 -23 -23 -23 -23 -23 -23 -23 -23 -23 -23 -22 -22
-16 -16 -16 -16 -16 -17 -17 -17 -17 -17 -17 -18 -18 -18 -18 -19 -19 -19 -19 -19 -20 -20 -20 -21 -21 -21 -21 -22 -22 -22 -23 -23 -24 -24 -24 -24 -24 -23 -23 -23 -23 -22 -22
-16 -16 -16 -16 -17 -17 -17 -17 -17 -18 -18 -18 -18 -19 -19 -19 -19 -19 -19 -20 -20 -21 -21 -21 -21 -22 -22 -22 -22 -23 -23 -23 -24 -24 -24 -24 -24 -24 -23 -23 -23 -22 -22
Height
5696 5697 5697 5697 5697 5697 5696 5695 5694 5693 5691 5691 5690 5689 5687 5685 5683 5682 5677 5672 5669 5668 5668 5669 5671 5670 5669 5668 5668 5669 5668 5666 5665 5664 5666 5665 5665 5662 5660 5658 5659 5661 5658
5679 5680 5680 5680 5681 5681 5681 5680 5679 5678 5677 5677 5676 5676 5674 5672 5670 5669 5665 5662 5659 5658 5658 5658 5659 5659 5658 5658 5657 5657 5657 5656 5655 5654 5654 5652 5653 5652 5649 5647 5645 5643 5646
5659 5661 5663 5664 5665 5665 5665 5665 5664 5664 5664 5664 5663 5663 5661 5659 5657 5656 5655 5652 5651 5650 5649 5649 5649 5648 5647 5647 5647 5647 5647 5646 5644 5643 5643 5642 5641 5641 5639 5637 5635 5630 5630
5638 5641 5644 5646 5647 5648 5649 5649 5649 5650 5651 5651 5651 5650 5649 5647 5646 5644 5644 5643 5642 5642 5641 5640 5639 5639 5639 5638 5638 5638 5637 5636 5635 5634 5633 5633 5632 5631 5630 5627 5626 5622 5620
5618 5621 5624 5627 5629 5631 5632 5633 5634 5635 5636 5637 5638 5637 5637 5636 5634 5633 5633 5633 5633 5633 5632 5632 5632 5631 5631 5630 5630 5629 5628 5628 5627 5626 5625 5625 5624 5622 5620 5617 5614 5613 5609
5600 5603 5607 5610 5612 5615 5616 5618 5620 5621 5623 5626 5627 5626 5626 5625 5624 5622 5623 5623 5623 5624 5625 5625 5625 5625 5625 5624 5623 5622 5622 5621 5619 5618 5618 5617 5615 5612 5610 5608 5606 5604 5603
5585 5587 5590 5594 5597 5600 5603 5605 5607 5609 5611 5613 5614 5614 5616 5617 5616 5615 5615 5616 5616 5617 5618 5619 5619 5620 5620 5619 5618 5617 5615 5614 5612 5610 5608 5606 5603 5601 5601 5601 5597 5596 5597
5572 5575 5579 5581 5585 5588 5589 5590 5592 5594 5596 5600 5603 5605 5608 5608 5608 5609 5609 5610 5611 5611 5612 5613 5614 5616 5616 5617 5614 5612 5611 5608 5603 5598 5595 5593 5593 5592 5591 5591 5593 5592 5592
5561 5564 5567 5570 5572 5573 5573 5575 5577 5580 5584 5588 5593 5598 5600 5600 5602 5603 5604 5606 5607 5608 5609 5610 5611 5613 5614 5614 5613 5609 5604 5599 5594 5590 5587 5584 5584 5584 5585 5586 5587 5590 5591
5550 5553 5555 5557 5558 5559 5560 5560 5565 5571 5576 5581 5586 5590 5592 5596 5597 5600 5602 5604 5604 5605 5607 5608 5609 5610 5612 5611 5611 5608 5604 5598 5593 5591 5588 5588 5588 5589 5590 5591 5593 5594 5594
5539 5542 5544 5547 5549 5552 5554 5558 5562 5568 5572 5577 5582 5587 5591 5593 5595 5598 5601 5603 5603 5604 5605 5605 5606 5608 5608 5608 5608 5606 5601 5598 5596 5595 5594 5593 5593 5593 5594 5594 5594 5593 5592
5531 5535 5538 5540 5543 5546 5550 5556 5562 5566 5570 5576 5582 5586 5588 5591 5595 5597 5597 5601 5602 5603 5605 5604 5605 5606 5606 5605 5605 5602 5600 5598 5598 5598 5597 5596 5596 5596 5595 5593 5591 5589 5587
5528 5531 5533 5537 5540 5545 5552 5558 5563 5569 5574 5579 5582 5586 5589 5592 5595 5598 5602 5602 5604 5604 5604 5605 5607 5605 5605 5603 5602 5601 5600 5601 5600 5599 5598 5597 5596 5594 5593 5590 5588 5585 5582
5529 5532 5535 5540 5545 5551 5557 5563 5569 5574 5579 5582 5587 5590 5593 5594 5598 5603 5604 5603 5604 5604 5604 5604 5604 5603 5603 5602 5603 5603 5602 5602 5601 5600 5598 5596 5594 5592 5589 5586 5583 5579 5575
5536 5539 5543 5548 5553 5559 5565 5570 5574 5579 5584 5587 5590 5594 5597 5599 5602 5603 5605 5605 5604 5604 5603 5603 5602 5601 5603 5605 5605 5604 5604 5602 5601 5599 5596 5594 5591 5588 5585 5581 5578 5574 5571
5548 5551 5555 5559 5564 5569 5575 5579 5583 5587 5590 5593 5596 5598 5600 5601 5603 5604 5605 5604 5603 5603 5603 5602 5603 5605 5606 5606 5606 5605 5603 5601 5599 5596 5593 5590 5587 5583 5580 5576 5572 5568 5565
5560 5563 5567 5571 5575 5580 5584 5587 5592 5596 5597 5599 5600 5601 5602 5603 5604 5604 5604 5603 5602 5604 5606 5607 5608 5609 5608 5608 5607 5605 5603 5600 5597 5594 5591 5587 5583 5579 5574 5570 5565 5561 5558
5574 5577 5580 5583 5586 5590 5593 5596 5598 5600 5602 5603 5604 5605 5605 5604 5605 5606 5608 5610 5611 5612 5612 5612 5612 5611 5610 5609 5607 5604 5601 5598 5595 5591 5586 5582 5577 5572 5567 5562 5559 5556 5553
5587 5590 5593 5595 5598 5600 5602 5604 5605 5607 5608 5609 5609 5610 5611 5611 5613 5615 5616 5616 5616 5616 5616 5616 5615 5613 5610 5608 5605 5602 5599 5595 5591 5586 5581 5575 5570 5565 5561 5557 5554 5551 5549
5598 5601 5603 5605 5607 5609 5611 5611 5611 5611 5613 5615 5617 5619 5620 5619 5620 5621 5621 5620 5620 5620 5619 5617 5615 5612 5609 5606 5603 5600 5596 5592 5587 5581 5576 5570 5565 5561 5557 5554 5551 5548 5547
5611 5612 5613 5615 5616 5617 5617 5617 5618 5619 5622 5624 5625 5626 5626 5626 5625 5625 5624 5624 5623 5622 5620 5617 5614 5611 5609 5606 5602 5598 5593 5588 5582 5576 5571 5567 5562 5558 5554 5551 5548 5546 5545
5620 5621 5623 5624 5624 5624 5625 5626 5628 5629 5630 5631 5632 5632 5632 5630 5629 5628 5628 5626 5624 5622 5620 5618 5615 5611 5607 5603 5600 5595 5589 5584 5579 5575 5570 5566 5562 5558 5554 5550 5547 5545 5544
5628 5629 5630 5631 5633 5634 5636 5637 5638 5638 5637 5637 5637 5637 5635 5634 5633 5632 5630 5628 5626 5623 5620 5617 5613 5609 5606 5602 5597 5592 5588 5583 5579 5574 5570 5566 5562 5558 5554 5550 5547 5545 5544
5637 5638 5640 5642 5642 5643 5644 5645 5644 5643 5642 5642 5641 5640 5639 5637 5635 5633 5631 5629 5626 5622 5619 5615 5612 5608 5604 5601 5597 5592 5587 5583 5579 5575 5570 5566 5562 5559 5555 5551 5548 5547 5545
5647 5648 5650 5650 5651 5651 5651 5650 5649 5648 5647 5645 5644 5642 5640 5638 5636 5635 5632 5629 5625 5622 5618 5615 5612 5608 5604 5600 5596 5592 5588 5583 5579 5574 5570 5567 5563 5560 5556 5553 5550 5548 5547
5656 5656 5656 5657 5657 5657 5656 5654 5652 5650 5648 5647 5646 5644 5642 5641 5638 5635 5632 5629 5625 5622 5618 5615 5612 5609 5605 5601 5596 5592 5588 5583 5579 5575 5571 5568 5565 5562 5559 5556 5553 5551 5550
Wind_Speed
62 60 59 58 58 57 56 54 53 54 55 55 55 55 54 54 52 50 50 46 47 45 42 43 43 45 43 41 40 39 38 40 40 39 39 41 42 42 44 39 40 38 41
65 63 61 59 56 55 54 54 53 53 51 51 50 50 51 51 51 48 44 41 41 36 35 39 41 40 39 39 36 36 38 38 40 40 39 42 42 41 44 43 40 42 45
65 64 61 60 59 57 55 55 54 53 51 49 48 46 46 50 50 45 40 39 35 33 32 33 33 32 31 30 31 34 35 36 39 41 41 43 40 40 39 43 44 50 33
69 66 62 59 59 58 57 54 54 53 52 49 46 45 46 47 47 45 40 36 34 32 31 30 29 29 29 29 31 32 32 35 38 40 41 41 39 37 39 43 42 43 49
67 65 63 60 58 54 51 51 52 50 45 44 44 45 43 44 45 45 42 37 33 30 29 29 28 28 28 27 29 32 33 35 38 39 39 37 37 40 42 45 43 40 40
54 56 55 50 45 47 48 49 45 43 40 38 44 46 41 40 40 34 32 32 30 29 28 26 25 26 26 27 30 32 33 34 36 34 32 35 39 41 40 38 41 42 37
43 40 41 42 42 41 39 40 42 43 45 46 41 40 36 31 26 24 22 24 27 29 29 28 26 23 25 26 28 29 30 31 32 33 36 38 38 36 36 31 34 34 31
34 35 35 37 38 40 43 46 47 46 48 45 40 35 30 26 24 23 23 23 21 21 20 21 21 21 21 21 25 27 26 29 36 37 35 37 36 40 30 25 30 24 12
29 31 34 36 40 44 46 45 41 39 36 31 31 29 24 24 21 18 15 14 14 15 16 16 17 17 14 19 19 27 30 29 25 14 16 13 10 11 10 13 12 9 7
37 37 33 31 34 27 22 25 28 29 27 25 25 23 17 14 12 12 12 10 9 10 10 12 13 12 16 12 16 20 17 10 15 25 24 21 18 17 15 11 6 2 4
26 25 20 16 14 13 14 14 18 17 19 21 15 11 10 9 8 9 8 7 7 7 10 14 15 20 10 11 13 17 7 8 12 15 16 13 11 8 4 3 6 6 8
9 10 12 13 14 12 14 16 17 15 16 17 16 14 12 11 10 12 13 4 10 5 10 11 10 5 10 14 15 12 11 8 10 6 6 5 4 3 5 7 9 12 15
7 7 6 7 11 20 23 19 20 21 20 19 17 15 16 15 19 9 13 7 5 10 12 3 6 10 13 13 15 11 9 7 9 8 7 7 8 8 10 12 14 17 19
13 13 15 23 27 28 26 24 25 25 22 22 17 11 14 20 12 6 4 5 6 6 4 5 7 12 8 7 14 7 1 3 8 8 9 10 12 14 15 17 20 23 25
25 27 30 33 31 30 31 29 29 34 27 23 15 19 14 6 5 4 5 10 5 6 6 7 11 8 18 13 8 4 1 7 10 11 13 15 17 19 20 21 23 23 24
31 32 35 35 35 39 35 27 26 23 20 21 12 10 6 2 1 2 2 3 8 10 10 7 13 21 13 6 3 5 7 10 13 15 17 19 20 21 22 24 24 25 23
38 41 45 43 37 34 33 29 22 20 15 11 11 10 8 6 4 1 4 2 11 16 22 21 16 9 4 4 5 8 11 13 15 18 20 21 23 24 26 26 24 22 18
40 40 38 33 34 31 26 24 22 20 19 16 12 9 3 4 9 20 26 26 23 18 14 10 8 6 6 7 9 11 14 16 19 21 23 24 26 25 24 23 20 17 14
36 34 31 28 25 24 23 21 18 15 13 13 12 20 29 31 29 24 20 16 13 12 10 8 7 8 9 12 14 16 19 21 22 22 23 24 24 23 21 19 15 12 8
33 32 31 30 27 24 24 22 21 25 30 33 29 25 22 22 20 17 14 12 11 10 9 10 11 12 14 17 19 20 20 21 21 23 23 23 23 21 17 14 11 8 6
30 28 25 22 26 24 26 34 37 34 29 24 20 18 17 17 15 13 12 11 11 11 12 14 16 17 16 16 16 16 19 21 23 25 25 23 21 18 15 13 10 6 4
25 28 31 27 26 29 35 33 29 26 23 22 18 14 12 12 12 13 13 14 15 15 14 13 13 13 14 15 17 21 24 24 23 22 22 21 19 17 14 13 8 4 3
30 26 24 26 32 31 28 24 20 20 19 18 13 10 13 14 13 12 13 13 12 12 12 14 16 17 17 19 22 23 23 23 22 22 20 19 17 15 14 13 9 5 4
27 31 32 30 26 24 22 19 17 17 15 13 11 12 12 12 13 13 13 14 14 16 18 18 18 18 20 21 21 22 23 23 21 21 20 17 15 15 14 13 9 6 5
31 28 25 24 22 20 18 17 16 14 12 11 12 12 13 14 14 15 16 17 18 19 19 17 18 19 20 21 21 22 23 22 21 20 18 16 14 15 16 15 11 8 7
25 22 21 19 19 18 17 16 17 15 13 12 13 14 15 15 16 18 18 19 19 19 18 17 18 19 20 20 20 21 22 22 20 18 17 16 15 15 16 16 13 9 9
Wind_Direction
271 272 271 271 271 274 275 276 275 275 276 276 277 278 281 282 287 293 291 284 282 282 275 269 271 275 275 273 273 273 273 271 269 268 266 269 272 274 278 278 270 271 259
268 268 270 272 273 273 273 275 276 276 278 278 278 279 278 281 287 292 284 279 278 278 276 270 269 274 272 269 267 266 267 269 267 266 268 271 273 274 276 276 265 255 259
269 270 271 271 272 272 272 271 272 272 273 273 274 275 279 283 285 288 279 276 277 276 271 270 272 271 270 267 263 262 263 266 266 266 267 270 275 275 276 277 276 280 266
266 267 268 270 272 271 271 271 270 270 269 271 273 275 278 282 285 283 277 274 274 276 275 267 265 267 267 265 263 262 261 262 264 267 270 274 279 280 283 285 282 280 275
267 267 267 267 268 269 269 268 268 268 266 265 267 272 277 282 282 278 273 272 275 275 268 264 268 272 267 265 263 264 263 263 265 268 272 277 282 286 285 282 281 279 279
267 267 266 265 262 264 266 269 267 261 261 276 271 272 274 279 279 276 268 266 269 267 267 263 266 267 263 264 265 268 268 269 271 276 276 278 280 284 285 280 285 283 277
263 258 257 257 258 265 270 271 270 259 265 278 273 267 267 269 271 265 261 262 263 263 264 265 262 258 261 268 274 277 280 284 284 280 277 279 282 276 282 279 272 283 271
260 262 263 263 262 267 273 276 271 267 270 264 264 260 258 259 262 264 265 262 259 258 256 252 252 256 266 284 292 294 296 293 292 289 285 280 275 280 267 264 271 273 255
264 271 273 270 272 275 272 266 263 258 257 249 251 249 247 255 255 256 243 239 248 254 255 253 255 262 277 286 309 313 312 305 317 305 302 266 243 187 188 162 88 82 57
272 278 272 268 271 271 260 255 244 242 239 238 236 231 238 240 236 220 219 231 253 253 250 259 258 257 274 286 304 306 310 77 95 71 63 61 52 61 64 61 48 1 287
268 262 255 260 260 258 222 218 222 221 222 223 210 182 185 191 198 211 218 228 208 223 255 251 259 263 264 290 295 286 145 96 68 43 42 47 45 66 62 333 311 310 322
220 246 255 246 241 246 194 176 173 184 150 143 152 155 153 162 158 160 190 176 228 234 258 246 229 262 284 286 299 253 135 91 61 54 58 46 16 345 315 314 317 325 328
224 235 219 188 168 147 146 151 140 133 139 141 139 135 146 148 165 172 197 183 315 256 249 244 283 285 294 291 264 157 98 43 331 333 327 321 318 317 315 317 320 322 325
121 122 133 132 128 124 122 126 130 122 114 127 120 114 146 123 112 123 173 226 284 270 263 281 283 292 282 180 133 123 133 291 333 324 320 318 319 317 316 318 320 324 331
109 114 120 120 119 120 118 116 126 131 134 129 118 117 112 135 162 159 227 267 294 301 296 279 267 258 144 145 150 127 323 299 312 315 320 323 321 321 319 317 318 321 320
105 110 113 115 115 120 114 118 124 128 120 111 114 109 112 142 242 290 266 229 301 299 286 262 142 132 123 105 50 336 326 318 318 322 322 319 317 315 313 313 316 315 316
103 109 112 114 114 117 118 117 119 121 121 93 102 102 105 100 121 284 303 276 101 114 117 106 102 105 86 23 341 330 326 324 323 322 318 315 314 315 315 314 314 319 323
106 109 117 115 115 114 108 113 109 106 106 101 101 109 106 67 104 112 109 107 105 99 99 101 80 49 12 350 341 335 334 331 326 323 320 318 316 315 317 320 322 323 322
104 104 105 103 102 104 108 108 104 103 102 103 95 101 106 100 98 100 100 101 99 82 63 47 31 12 359 354 347 340 334 330 325 321 321 321 320 322 325 326 326 324 325
100 99 102 103 101 100 100 96 97 99 101 106 107 95 94 97 95 95 91 79 67 56 40 23 13 6 358 350 342 333 328 328 328 327 329 335 340 341 340 335 328 326 328
96 98 101 103 104 96 95 102 98 99 99 98 92 89 87 83 78 71 62 54 44 30 22 15 6 355 341 331 328 333 336 336 340 346 349 353 355 351 349 348 343 342 335
100 105 103 98 101 106 108 99 90 91 92 89 82 74 71 72 65 55 44 36 28 18 9 356 344 341 348 352 348 347 349 350 351 353 356 358 357 358 359 357 357 356 6
105 104 102 101 103 100 99 93 89 88 79 72 68 59 50 45 42 40 36 31 23 13 6 4 4 3 359 355 355 355 354 355 356 356 356 355 359 4 8 8 9 30 49
104 105 105 104 104 96 91 87 80 74 68 60 46 38 42 44 42 36 33 26 18 12 7 5 4 1 358 356 357 358 358 356 356 355 355 359 7 15 17 19 28 51 62
110 107 105 100 93 88 83 76 65 56 48 40 40 44 45 42 38 32 25 18 11 6 3 3 2 0 359 356 358 360 358 356 357 358 4 11 18 22 24 29 40 54 64
109 103 96 92 89 80 63 49 44 46 45 47 48 46 41 35 30 23 16 9 4 1 2 2 1 1 358 358 359 359 359 1 1 4 10 17 26 28 27 30 38 54 70